[[{"header":{"parameterUnit":"m.s-1","parameterCategory":2,"la1":30.2991,"la2":30.254,"lo1":-89.0895,"lo2":-89.0444,"dy":0.0017,"dx":0.0017,"nx":28,"ny":28,"refTime":"2023-11-03T03:00:00:Z","depth":"0","parameterNumber":2,"parameterNumberName":"U-component_of_CURRENTS"},"data":[0,0,0,0,0,0,0,0,0,0,0,0,0,0,0,0,0,0,0,0,0,0,0,0,0,0,0,0,0,0,0,0,0,0,0,0,0,0,0,0,0,0,0,0,0,0,0,0,0,0,0,0,0,0,0,0,0,0,-0.3891,-0.3891,0,-0.3828,-0.3827,-0.3827,-0.3781,-0.3781,-0.378,-0.378,-0.3721,-0.372,-0.3719,0,0,0,0,0,0,0,0,0,0,0,0,0,-0.3892,-0.3893,-0.3891,-0.389,-0.3889,-0.3828,-0.3827,-0.3826,-0.3781,-0.3781,-0.378,-0.378,-0.3722,-0.372,-0.3719,0,0,0,0,0,0,0,0,0,0,0,0,0,-0.3868,-0.3893,-0.3892,-0.3858,-0.3855,-0.3828,-0.3827,-0.3826,-0.3782,-0.3781,-0.378,-0.3779,-0.3722,-0.372,-0.3719,-0.3725,0,0,-0.3714,-0.3713,0,0,0,0,0,0,0,0,-0.387,-0.3869,-0.3864,-0.3861,-0.3856,-0.381,-0.3806,-0.3792,-0.3782,-0.3811,-0.378,-0.3779,-0.3751,-0.3747,-0.3739,-0.3722,-0.3719,-0.3714,-0.3713,-0.3712,-0.3712,0,0,0,0,0,0,0,-0.3872,-0.387,-0.3868,-0.3863,-0.3858,-0.3818,-0.3815,-0.3802,-0.3788,-0.3809,-0.3805,-0.3795,-0.3749,-0.3741,-0.3737,-0.3719,-0.3714,-0.3712,-0.3711,-0.3711,-0.3716,-0.3717,0,0,0,0,0,0,-0.3881,-0.3873,-0.387,-0.3866,-0.3859,-0.3819,-0.3815,-0.3827,-0.3788,-0.378,-0.3796,-0.3793,-0.3744,-0.3739,-0.3735,-0.3746,-0.3712,-0.3711,-0.371,-0.3715,-0.3716,-0.3718,0,0,0,0,0,0,-0.3882,-0.3883,-0.3873,-0.3865,-0.386,-0.382,-0.3833,-0.3826,-0.3811,-0.3777,-0.377,-0.3787,-0.3743,-0.3737,-0.3735,-0.3743,-0.371,-0.3708,-0.3714,-0.3715,-0.3717,-0.3764,0,0,0,0,0,0,-0.3883,-0.3884,-0.3891,-0.3867,-0.3861,-0.3866,-0.3834,-0.3826,-0.3806,-0.3802,-0.3768,-0.3762,-0.3742,-0.3738,-0.3734,-0.374,-0.3707,-0.3712,-0.3715,-0.3716,-0.3761,-0.3767,-0.3772,0,0,0,0,0,-0.3883,-0.3892,-0.3893,-0.3891,-0.3875,-0.3867,-0.3861,-0.3829,-0.3807,-0.3811,-0.3791,-0.3763,-0.3748,-0.3738,-0.3732,-0.3739,-0.3711,-0.3714,-0.3716,-0.3759,-0.3766,-0.3772,0,0,0,0,0,0,-0.3887,-0.3887,-0.3887,-0.3894,-0.3888,-0.3859,-0.3847,-0.3831,-0.3817,-0.3807,-0.3777,-0.3771,-0.3773,-0.3755,-0.3744,-0.3749,-0.3725,-0.3726,-0.3759,-0.3765,-0.3771,-0.3725,-0.3706,0,0,0,0,0,-0.3896,-0.3907,-0.3901,-0.3906,-0.3903,-0.3878,-0.3866,-0.3851,-0.3834,-0.3825,-0.3807,-0.3789,-0.3781,-0.3772,-0.3764,-0.3765,-0.3707,-0.3767,-0.3772,-0.3777,-0.3738,-0.3646,-0.3638,-0.3726,-0.3726,-0.3726,0,0,-0.389,-0.3897,-0.3897,-0.3908,-0.3894,-0.3902,-0.3869,-0.3856,-0.3863,-0.3822,-0.3826,-0.3809,-0.3787,-0.3792,-0.379,-0.3775,-0.3738,-0.378,-0.3784,-0.3741,-0.3647,-0.3638,-0.3629,-0.3727,-0.3727,-0.3727,0,0,-0.3885,-0.39,-0.3905,-0.3915,-0.391,-0.3906,-0.3906,-0.389,-0.3884,-0.3894,-0.3864,-0.3838,-0.3847,-0.3813,-0.3802,-0.3829,-0.3773,-0.3848,-0.3831,-0.3745,-0.3735,-0.3726,-0.3702,-0.3689,-0.3847,-0.3847,-0.3847,0,-0.3878,-0.3891,-0.3902,-0.3919,-0.3914,-0.3914,-0.3913,-0.3926,-0.3913,-0.388,-0.3906,-0.3847,-0.3846,-0.3797,-0.3824,-0.3835,-0.3797,-0.3809,-0.3747,-0.3736,-0.3725,-0.3702,-0.3688,-0.385,-0.385,-0.3849,-0.3849,0,-0.3874,-0.3895,-0.3897,-0.3928,-0.3935,-0.3932,-0.3952,-0.3952,-0.3948,-0.3928,-0.3886,-0.388,-0.3818,-0.3846,-0.3852,-0.3781,-0.3788,-0.3766,-0.3721,-0.3718,-0.3697,-0.3681,-0.3854,-0.3853,-0.3852,-0.3851,0,0,-0.3814,-0.3881,-0.388,-0.387,-0.3932,-0.3905,-0.3952,-0.3929,-0.3884,-0.3906,-0.3833,-0.3848,-0.3797,-0.378,-0.3773,-0.3724,-0.3668,-0.3724,-0.3718,-0.3685,-0.3514,-0.3468,-0.3447,-0.3631,-0.3627,-0.3624,-0.355,0,-0.3794,-0.3815,-0.3865,-0.3856,-0.3847,-0.3881,-0.3904,-0.3889,-0.3883,-0.383,-0.3801,-0.3749,-0.3792,-0.3751,-0.3709,-0.3675,-0.3618,-0.3692,-0.3532,-0.3528,-0.3472,-0.3422,-0.3285,-0.3199,-0.3535,-0.3532,-0.353,0,-0.3747,-0.3765,-0.3773,-0.3768,-0.3763,-0.3772,-0.3727,-0.3743,-0.3713,-0.3702,-0.3647,-0.3633,-0.3584,-0.3611,-0.3521,-0.3569,-0.3529,-0.3509,-0.3505,-0.3413,-0.3448,-0.3244,-0.3157,-0.3126,-0.3505,-0.3507,-0.3509,0,-0.363,-0.3666,-0.3657,-0.3669,-0.3704,-0.3681,-0.3676,-0.3668,-0.3646,-0.3593,-0.3567,-0.3504,-0.3476,-0.3412,-0.3428,-0.3451,-0.3329,-0.3344,-0.3258,-0.3258,-0.3077,-0.3066,-0.2909,-0.3213,-0.3213,-0.3213,-0.3213,0,-0.3565,-0.3527,-0.3588,-0.3579,-0.3495,-0.3561,-0.3478,-0.3472,-0.3475,-0.3419,-0.3463,-0.3419,-0.3419,-0.3384,-0.3372,-0.3282,-0.3273,-0.3218,-0.3202,-0.3102,-0.3094,-0.3008,-0.3052,-0.3211,-0.3211,-0.3212,-0.3212,0,-0.341,-0.3489,-0.3424,-0.3449,-0.3444,-0.3355,-0.3355,-0.3308,-0.335,-0.3291,-0.3279,-0.333,-0.3297,-0.3311,-0.3229,-0.3203,-0.3062,-0.3084,-0.301,-0.2985,-0.2858,-0.2912,-0.2724,-0.265,-0.2947,-0.2945,-0.2943,0,-0.3326,-0.3308,-0.3285,-0.3242,-0.3243,-0.3173,-0.3154,-0.3205,-0.3188,-0.3228,-0.3192,-0.3194,-0.3161,-0.3084,-0.3023,-0.2952,-0.2962,-0.2788,-0.2774,-0.279,-0.2839,-0.288,-0.2835,-0.2593,-0.2589,-0.2585,-0.2582,0,-0.3125,-0.313,-0.3081,-0.3024,-0.2982,-0.2929,-0.2915,-0.2902,-0.2982,-0.2989,-0.2999,-0.2986,-0.2953,-0.283,-0.2772,-0.2714,-0.2711,-0.2709,-0.2696,-0.2503,-0.2557,-0.25,-0.2778,-0.2549,-0.2553,-0.2555,-0.2557,-0.2558,-0.2927,-0.283,-0.2809,-0.2725,-0.2705,-0.2673,-0.2585,-0.2648,-0.2624,-0.2618,-0.2737,-0.2694,-0.2671,-0.2562,-0.2509,-0.2368,-0.2459,-0.2295,-0.2354,-0.239,-0.2304,-0.2547,-0.2321,-0.2323,-0.2325,-0.2326,-0.2328,0,-0.2642,-0.2592,-0.2523,-0.2429,-0.2363,-0.2433,-0.2417,-0.2348,-0.2296,-0.2366,-0.2363,-0.2364,-0.2243,-0.2243,-0.2138,-0.2043,-0.1995,-0.201,-0.2011,-0.1975,-0.2128,-0.2096,-0.1844,-0.1844,-0.1844,-0.1844,-0.1844,-0.1844,-0.2483,-0.2324,-0.2312,-0.212,-0.2088,-0.1949,-0.1912,-0.1876,-0.1889,-0.186,-0.1899,-0.1979,-0.202,-0.2143,-0.1999,-0.1899,-0.1861,-0.1799,-0.1857,-0.197,-0.2001,-0.2031,-0.2006,-0.1739,-0.1739,-0.1596,-0.1595,-0.1595]},{"header":{"parameterUnit":"m.s-1","parameterCategory":2,"la1":30.2991,"la2":30.254,"lo1":-89.0895,"lo2":-89.0444,"dy":0.0017,"dx":0.0017,"nx":28,"ny":28,"refTime":"2023-11-03T03:00:00:Z","depth":"0","parameterNumber":3,"parameterNumberName":"V-component_of_CURRENTS"},"data":[0,0,0,0,0,0,0,0,0,0,0,0,0,0,0,0,0,0,0,0,0,0,0,0,0,0,0,0,0,0,0,0,0,0,0,0,0,0,0,0,0,0,0,0,0,0,0,0,0,0,0,0,0,0,0,0,0,0,-0.0384,-0.0382,0,-0.0243,-0.0241,-0.024,-0.0159,-0.0158,-0.0158,-0.0158,0.0038,0.0043,0.0047,0,0,0,0,0,0,0,0,0,0,0,0,0,-0.0552,-0.0549,-0.0384,-0.0382,-0.038,-0.0243,-0.0241,-0.0239,-0.0159,-0.0158,-0.0158,-0.0157,0.0036,0.0042,0.0048,0,0,0,0,0,0,0,0,0,0,0,0,0,-0.0452,-0.0549,-0.0384,-0.0323,-0.0316,-0.0244,-0.0241,-0.0239,-0.0159,-0.0158,-0.0158,-0.0157,0.0034,0.0041,0.0049,0.0083,0,0,0.0071,0.0074,0,0,0,0,0,0,0,0,-0.0458,-0.0446,-0.0334,-0.0327,-0.0319,-0.0217,-0.0229,-0.0128,-0.0159,-0.0219,-0.0158,-0.0157,-0.0042,-0.0029,-0.0005,0.0092,0.01,0.0072,0.0076,0.0079,0.0081,0,0,0,0,0,0,0,-0.0465,-0.0452,-0.0329,-0.0332,-0.0323,-0.0292,-0.0278,-0.021,-0.0135,-0.0214,-0.0207,-0.0191,-0.0038,-0.0012,0.0,0.0103,0.0071,0.0078,0.0082,0.0085,0.0263,0.0264,0,0,0,0,0,0,-0.0483,-0.0458,-0.0333,-0.0324,-0.0388,-0.0289,-0.0273,-0.0251,-0.0137,-0.0119,-0.0192,-0.0188,-0.0025,-0.0008,0.0008,0.006,0.0079,0.0086,0.009,0.0263,0.0263,0.0264,0,0,0,0,0,0,-0.0487,-0.0473,-0.0339,-0.0388,-0.0369,-0.0287,-0.0263,-0.0248,-0.0223,-0.012,-0.0102,-0.0181,-0.0024,-0.0003,0.0068,0.0068,0.0089,0.0096,0.0262,0.0263,0.0263,0.0162,0,0,0,0,0,0,-0.0493,-0.0475,-0.047,-0.0389,-0.0367,-0.0305,-0.0263,-0.0246,-0.0213,-0.0207,-0.0105,-0.0086,-0.0022,0.0056,0.0075,0.0079,0.0102,0.0262,0.0263,0.0263,0.0165,0.0159,0.0154,0,0,0,0,0,-0.0499,-0.0499,-0.0471,-0.0456,-0.036,-0.0305,-0.0291,-0.0232,-0.0214,-0.0207,-0.0135,-0.0089,0.0074,0.0062,0.0084,0.009,0.0262,0.0262,0.0263,0.0168,0.016,0.0154,0,0,0,0,0,0,-0.0576,-0.0488,-0.0456,-0.043,-0.0375,-0.0291,-0.0281,-0.0241,-0.018,-0.0174,-0.0082,-0.0058,0.0003,0.0062,0.0047,0.0144,0.0175,0.018,0.0095,0.0089,0.0083,0.0061,0.0108,0,0,0,0,0,-0.0589,-0.0561,-0.0478,-0.046,-0.0436,-0.0361,-0.0334,-0.0292,-0.0226,-0.0199,-0.0128,-0.0049,0.0023,0.0066,0.0135,0.019,0.0239,0.0208,0.0203,0.0198,0.0196,0.0261,0.026,0.0266,0.0266,0.0266,0,0,-0.0611,-0.0563,-0.0545,-0.0475,-0.0429,-0.0403,-0.0344,-0.0308,-0.0283,-0.0186,-0.0139,-0.0067,0.0033,0.0093,0.0125,0.0142,0.0222,0.0199,0.0193,0.0194,0.0262,0.0261,0.026,0.0267,0.0267,0.0267,0,0,-0.0656,-0.0603,-0.06,-0.0558,-0.0495,-0.0442,-0.0437,-0.0357,-0.0319,-0.0261,-0.0186,-0.0116,-0.001,0.0062,0.0113,0.0121,0.0187,0.0143,0.0103,0.0166,0.0165,0.0166,0.0218,0.0224,0.0144,0.0143,0.0143,0,-0.0691,-0.0669,-0.0594,-0.0586,-0.0558,-0.0468,-0.0464,-0.041,-0.0318,-0.0284,-0.026,-0.0102,-0.0023,0.0062,0.0066,0.0108,0.0149,0.0115,0.0156,0.0158,0.016,0.0214,0.0221,0.0139,0.0139,0.014,0.014,0,-0.0733,-0.0715,-0.0714,-0.0665,-0.0627,-0.061,-0.0523,-0.0483,-0.0427,-0.0363,-0.0277,-0.0169,-0.0073,-0.0038,0.002,0.0079,0.0104,0.0134,0.0163,0.0152,0.0211,0.022,0.0132,0.0134,0.0135,0.0136,0,0,-0.0814,-0.0755,-0.0757,-0.0744,-0.0668,-0.0639,-0.0598,-0.0525,-0.0493,-0.0402,-0.0354,-0.0229,-0.0169,-0.0107,-0.0024,0.0035,0.0084,0.0082,0.0088,0.0117,0.0213,0.0283,0.0301,0.0115,0.0116,0.0117,0.0243,0,-0.0874,-0.0882,-0.0829,-0.0826,-0.0817,-0.0724,-0.0691,-0.0611,-0.0531,-0.0461,-0.034,-0.0261,-0.0194,-0.0149,-0.008,0.0051,0.0106,0.0046,0.0235,0.024,0.029,0.0314,0.0348,0.0468,0.0253,0.0255,0.0256,0,-0.0939,-0.0929,-0.0948,-0.0892,-0.0881,-0.0865,-0.0786,-0.0742,-0.0617,-0.0554,-0.0455,-0.0352,-0.0232,-0.0186,0.0012,-0.0032,0.0076,0.0169,0.0177,0.0285,0.0329,0.045,0.0494,0.0663,0.0272,0.0271,0.027,0,-0.1036,-0.101,-0.1029,-0.1012,-0.0941,-0.093,-0.0886,-0.0778,-0.0734,-0.0612,-0.0565,-0.041,-0.0323,-0.0176,0.003,0.0018,0.0243,0.0254,0.0416,0.0421,0.0512,0.0524,0.0732,0.0377,0.0377,0.0376,0.0376,0,-0.1122,-0.1132,-0.1077,-0.1087,-0.1087,-0.1013,-0.0996,-0.0922,-0.0828,-0.0773,-0.0626,-0.0543,-0.0318,-0.0151,0.0012,0.0257,0.0234,0.0419,0.0466,0.0479,0.0486,0.0688,0.0752,0.0381,0.038,0.0379,0.0378,0,-0.1223,-0.1198,-0.12,-0.1149,-0.1135,-0.1133,-0.1067,-0.1046,-0.0953,-0.0877,-0.0842,-0.0632,-0.0402,-0.0169,0.0099,0.0247,0.0582,0.0549,0.0547,0.0593,0.0892,0.0948,0.1198,0.1311,0.0741,0.0744,0.0746,0,-0.1275,-0.1295,-0.1254,-0.1255,-0.1237,-0.122,-0.1208,-0.1118,-0.1084,-0.092,-0.0885,-0.0652,-0.0451,-0.003,0.0275,0.0586,0.0709,0.0786,0.0777,0.0931,0.1028,0.1053,0.113,0.0853,0.0856,0.0858,0.086,0,-0.135,-0.1336,-0.1323,-0.1332,-0.1331,-0.1326,-0.1296,-0.1283,-0.1169,-0.108,-0.0908,-0.0737,-0.0311,0.0096,0.0504,0.0677,0.0921,0.0844,0.1014,0.1149,0.1181,0.1304,0.0736,0.0881,0.0879,0.0878,0.0876,0.0876,-0.1382,-0.1383,-0.1368,-0.1375,-0.1389,-0.1404,-0.1387,-0.1334,-0.126,-0.1072,-0.0921,-0.0612,-0.0054,0.0547,0.0762,0.119,0.1129,0.1296,0.1354,0.1367,0.1478,0.0954,0.1147,0.1146,0.1146,0.1145,0.1145,0,-0.1389,-0.1389,-0.1408,-0.1409,-0.1443,-0.1438,-0.1417,-0.1362,-0.1254,-0.1039,-0.0819,-0.0193,0.036,0.0855,0.1466,0.1687,0.1724,0.1775,0.1817,0.1876,0.1431,0.1438,0.1691,0.1691,0.1691,0.1691,0.1691,0.169,-0.1386,-0.139,-0.1396,-0.1442,-0.146,-0.1462,-0.1441,-0.1333,-0.1163,-0.0757,-0.0388,-0.0098,0.0583,0.1567,0.2111,0.2143,0.2331,0.2288,0.2408,0.209,0.2048,0.2009,0.2034,0.2407,0.2408,0.2828,0.2833,0.2836]}],[{"header":{"parameterUnit":"m.s-1","parameterCategory":2,"la1":30.2991,"la2":30.254,"lo1":-89.0895,"lo2":-89.0444,"dy":0.0017,"dx":0.0017,"nx":28,"ny":28,"refTime":"2023-11-03T03:00:00:Z","depth":"2","parameterNumber":2,"parameterNumberName":"U-component_of_CURRENTS"},"data":[0,0,0,0,0,0,0,0,0,0,0,0,0,0,0,0,0,0,0,0,0,0,0,0,0,0,0,0,0,0,0,0,0,0,0,0,0,0,0,0,0,0,0,0,0,0,0,0,0,0,0,0,0,0,0,0,0,0,-0.2875,-0.2878,0,-0.3014,-0.3015,-0.3015,-0.2998,-0.2997,-0.2996,-0.2995,-0.2998,-0.2999,-0.3,0,0,0,0,0,0,0,0,0,0,0,0,0,-0.2811,-0.281,-0.2875,-0.2878,-0.2881,-0.3014,-0.3015,-0.3015,-0.2998,-0.2997,-0.2996,-0.2995,-0.2998,-0.2999,-0.3,0,0,0,0,0,0,0,0,0,0,0,0,0,-0.2868,-0.2809,-0.2874,-0.29,-0.2905,-0.3014,-0.3015,-0.3015,-0.2998,-0.2997,-0.2996,-0.2994,-0.2997,-0.2999,-0.3,-0.3033,0,0,-0.3004,-0.3004,0,0,0,0,0,0,0,0,-0.2864,-0.2868,-0.2893,-0.2899,-0.2904,-0.3001,-0.2995,-0.302,-0.2998,-0.2946,-0.2995,-0.2994,-0.2998,-0.2999,-0.3007,-0.3033,-0.3033,-0.3004,-0.3005,-0.3005,-0.3006,0,0,0,0,0,0,0,-0.286,-0.2864,-0.2914,-0.2897,-0.2904,-0.2981,-0.2983,-0.3,-0.2962,-0.2951,-0.2954,-0.2994,-0.2997,-0.3006,-0.3007,-0.3033,-0.3004,-0.3005,-0.3006,-0.3006,-0.3091,-0.3093,0,0,0,0,0,0,-0.2864,-0.2858,-0.291,-0.292,-0.2899,-0.2983,-0.2986,-0.2958,-0.2965,-0.2971,-0.2995,-0.2994,-0.3005,-0.3006,-0.3007,-0.3054,-0.3005,-0.3006,-0.3007,-0.309,-0.3092,-0.3093,0,0,0,0,0,0,-0.2861,-0.2864,-0.2905,-0.291,-0.2922,-0.2985,-0.2955,-0.2962,-0.2984,-0.3004,-0.3003,-0.3014,-0.3004,-0.3005,-0.3032,-0.3053,-0.3007,-0.3008,-0.3088,-0.309,-0.3092,-0.3142,0,0,0,0,0,0,-0.2857,-0.286,-0.2868,-0.2907,-0.2922,-0.2982,-0.2959,-0.2966,-0.3019,-0.3017,-0.302,-0.3018,-0.3003,-0.303,-0.3033,-0.3054,-0.3009,-0.3086,-0.3089,-0.3092,-0.3139,-0.3146,-0.3152,0,0,0,0,0,-0.2853,-0.2888,-0.2865,-0.2875,-0.2918,-0.2986,-0.2999,-0.3032,-0.3021,-0.3042,-0.3038,-0.3018,-0.3049,-0.3033,-0.3036,-0.3058,-0.3085,-0.3088,-0.3091,-0.3136,-0.3144,-0.3152,0,0,0,0,0,0,-0.2881,-0.2891,-0.2867,-0.2902,-0.294,-0.2989,-0.3048,-0.3047,-0.3062,-0.3056,-0.3042,-0.3042,-0.3078,-0.3065,-0.3047,-0.3091,-0.3063,-0.3067,-0.3095,-0.3103,-0.311,-0.3066,-0.301,0,0,0,0,0,-0.2885,-0.2879,-0.2918,-0.2936,-0.2971,-0.3,-0.3043,-0.3046,-0.307,-0.3076,-0.3078,-0.308,-0.3096,-0.3096,-0.3112,-0.3135,-0.3092,-0.3151,-0.3157,-0.3163,-0.3131,-0.3083,-0.3081,-0.3104,-0.3104,-0.3104,0,0,-0.2879,-0.2907,-0.289,-0.294,-0.2974,-0.3016,-0.3018,-0.308,-0.3095,-0.3075,-0.3105,-0.3115,-0.3112,-0.3141,-0.3153,-0.3128,-0.3144,-0.3167,-0.3172,-0.3135,-0.3086,-0.3083,-0.3081,-0.3106,-0.3106,-0.3106,0,0,-0.29,-0.2912,-0.2919,-0.2963,-0.3036,-0.3058,-0.3076,-0.3123,-0.3134,-0.317,-0.3156,-0.3163,-0.3203,-0.3182,-0.3182,-0.3233,-0.3193,-0.3261,-0.3243,-0.32,-0.3196,-0.3192,-0.3168,-0.3162,-0.3249,-0.3249,-0.3249,0,-0.2902,-0.2906,-0.2943,-0.2993,-0.3034,-0.3072,-0.3099,-0.3134,-0.3171,-0.3169,-0.3187,-0.3204,-0.3211,-0.3203,-0.3224,-0.3243,-0.3221,-0.3213,-0.3204,-0.3199,-0.3194,-0.317,-0.3162,-0.3252,-0.3251,-0.3251,-0.3251,0,-0.2923,-0.2944,-0.2981,-0.3012,-0.3063,-0.3107,-0.3158,-0.3189,-0.3212,-0.3218,-0.3237,-0.3245,-0.3232,-0.326,-0.3261,-0.3237,-0.3237,-0.3229,-0.3175,-0.3194,-0.317,-0.316,-0.3256,-0.3255,-0.3254,-0.3253,0,0,-0.2858,-0.296,-0.2968,-0.2979,-0.3073,-0.3101,-0.3156,-0.3188,-0.3193,-0.3234,-0.3221,-0.3257,-0.3241,-0.3236,-0.3238,-0.3204,-0.3178,-0.3204,-0.3201,-0.3165,-0.3097,-0.3032,-0.3016,-0.3173,-0.3171,-0.317,-0.3106,0,-0.2851,-0.2919,-0.2974,-0.301,-0.3045,-0.3104,-0.3143,-0.3174,-0.3208,-0.3217,-0.3217,-0.3221,-0.3242,-0.3233,-0.3206,-0.3193,-0.3151,-0.3197,-0.3095,-0.3092,-0.3017,-0.3001,-0.2789,-0.2707,-0.3096,-0.3094,-0.3093,0,-0.2844,-0.289,-0.293,-0.2986,-0.3007,-0.3032,-0.3073,-0.3111,-0.3146,-0.3169,-0.3163,-0.3176,-0.315,-0.3162,-0.3107,-0.3141,-0.3109,-0.3093,-0.309,-0.2989,-0.3006,-0.2745,-0.2675,-0.3077,-0.3078,-0.3079,-0.3081,0,-0.2772,-0.2851,-0.287,-0.2897,-0.2979,-0.299,-0.3025,-0.3076,-0.3098,-0.3119,-0.3127,-0.3111,-0.3103,-0.3062,-0.3057,-0.3075,-0.2991,-0.3006,-0.2909,-0.2906,-0.2678,-0.2658,-0.2922,-0.2923,-0.2923,-0.2923,-0.2923,0,-0.2747,-0.2758,-0.2832,-0.2848,-0.2844,-0.2926,-0.2929,-0.297,-0.3019,-0.3017,-0.3077,-0.3061,-0.3077,-0.3053,-0.303,-0.2944,-0.2963,-0.2878,-0.2866,-0.2698,-0.268,-0.2958,-0.2963,-0.292,-0.2921,-0.2921,-0.2922,0,-0.2652,-0.2725,-0.2731,-0.2796,-0.2815,-0.28,-0.2869,-0.2874,-0.2947,-0.2946,-0.2951,-0.3014,-0.2984,-0.2994,-0.2935,-0.2899,-0.2829,-0.2787,-0.2606,-0.2571,-0.2782,-0.2791,-0.2654,-0.2651,-0.2648,-0.2646,-0.2644,0,-0.2603,-0.2607,-0.2653,-0.2654,-0.2679,-0.2693,-0.2712,-0.2807,-0.2822,-0.2896,-0.2879,-0.2894,-0.2855,-0.2784,-0.2716,-0.2638,-0.2737,-0.241,-0.2384,-0.2742,-0.2745,-0.2759,-0.2771,-0.2123,-0.2117,-0.2112,-0.2108,0,-0.2476,-0.2499,-0.2505,-0.2507,-0.252,-0.2528,-0.2567,-0.2576,-0.2678,-0.2697,-0.2701,-0.268,-0.2639,-0.2465,-0.2403,-0.2335,-0.2411,-0.2306,-0.268,-0.2239,-0.2239,-0.2245,-0.2274,-0.2064,-0.2069,-0.2072,-0.2074,-0.2076,-0.2348,-0.2312,-0.2331,-0.2316,-0.2341,-0.2333,-0.2289,-0.2352,-0.235,-0.2337,-0.2436,-0.2343,-0.2346,-0.2124,-0.2024,-0.1961,-0.2123,-0.2034,-0.2049,-0.207,-0.2034,-0.2031,-0.1811,-0.1814,-0.1816,-0.1819,-0.182,0,-0.2152,-0.2154,-0.2141,-0.2121,-0.2082,-0.2155,-0.2162,-0.2099,-0.2036,-0.2064,-0.2034,-0.1839,-0.1722,-0.1741,-0.1562,-0.1538,-0.1527,-0.1487,-0.1465,-0.1508,-0.1548,-0.1486,-0.1117,-0.1115,-0.1113,-0.1112,0,0,-0.2061,-0.198,-0.1983,-0.1861,-0.1855,-0.1745,-0.1712,-0.1657,-0.164,-0.1538,-0.1492,-0.16,-0.1665,-0.1383,-0.1326,-0.1185,-0.1333,-0.113,-0.169,-0.1705,-0.1742,-0.1857,-0.1811,0,0,0,0,0]},{"header":{"parameterUnit":"m.s-1","parameterCategory":2,"la1":30.2991,"la2":30.254,"lo1":-89.0895,"lo2":-89.0444,"dy":0.0017,"dx":0.0017,"nx":28,"ny":28,"refTime":"2023-11-03T03:00:00:Z","depth":"2","parameterNumber":3,"parameterNumberName":"V-component_of_CURRENTS"},"data":[0,0,0,0,0,0,0,0,0,0,0,0,0,0,0,0,0,0,0,0,0,0,0,0,0,0,0,0,0,0,0,0,0,0,0,0,0,0,0,0,0,0,0,0,0,0,0,0,0,0,0,0,0,0,0,0,0,0,-0.0397,-0.0396,0,-0.0267,-0.0265,-0.0264,-0.0193,-0.0193,-0.0193,-0.0192,-0.0018,-0.0014,-0.001,0,0,0,0,0,0,0,0,0,0,0,0,0,-0.0497,-0.0496,-0.0398,-0.0396,-0.0394,-0.0267,-0.0265,-0.0264,-0.0193,-0.0193,-0.0192,-0.0192,-0.0019,-0.0014,-0.0009,0,0,0,0,0,0,0,0,0,0,0,0,0,-0.0421,-0.0496,-0.0398,-0.0342,-0.0335,-0.0267,-0.0265,-0.0263,-0.0193,-0.0193,-0.0192,-0.0192,-0.0021,-0.0015,-0.0008,0.002,0,0,0.0011,0.0014,0,0,0,0,0,0,0,0,-0.0426,-0.0418,-0.0352,-0.0346,-0.0338,-0.0244,-0.0236,-0.0166,-0.0194,-0.025,-0.0192,-0.0192,-0.0088,-0.0076,-0.0057,0.0028,0.0036,0.0012,0.0016,0.0019,0.002,0,0,0,0,0,0,0,-0.0431,-0.0423,-0.0348,-0.035,-0.0342,-0.0292,-0.0282,-0.0222,-0.0175,-0.0245,-0.0239,-0.0221,-0.0085,-0.0063,-0.0052,0.0038,0.0012,0.0017,0.0021,0.0024,0.0176,0.0176,0,0,0,0,0,0,-0.0448,-0.0428,-0.0352,-0.0344,-0.0379,-0.0291,-0.028,-0.0276,-0.0176,-0.016,-0.0221,-0.0218,-0.0075,-0.006,-0.0046,0.0006,0.0018,0.0025,0.0028,0.0175,0.0176,0.0176,0,0,0,0,0,0,-0.0451,-0.0443,-0.0357,-0.038,-0.0365,-0.0291,-0.0287,-0.0274,-0.025,-0.0158,-0.0142,-0.021,-0.0074,-0.0055,0.0004,0.0012,0.0027,0.0033,0.0175,0.0176,0.0176,0.0101,0,0,0,0,0,0,-0.0455,-0.0446,-0.0446,-0.0382,-0.0365,-0.0324,-0.0287,-0.0272,-0.0239,-0.0233,-0.0143,-0.0126,-0.0072,-0.0006,0.001,0.0022,0.0038,0.0175,0.0175,0.0176,0.0103,0.0099,0.0095,0,0,0,0,0,-0.0459,-0.047,-0.0447,-0.0437,-0.0369,-0.0324,-0.0312,-0.0257,-0.0239,-0.0233,-0.0173,-0.0129,0.0008,-0.0001,0.0018,0.0032,0.0175,0.0175,0.0176,0.0105,0.01,0.0095,0,0,0,0,0,0,-0.0519,-0.0461,-0.0435,-0.0429,-0.0381,-0.0312,-0.0298,-0.0263,-0.0211,-0.0206,-0.0126,-0.0106,-0.0051,-0.0002,-0.0013,0.0076,0.0099,0.0103,0.0039,0.0034,0.003,0.0013,0.0044,0,0,0,0,0,-0.0531,-0.0518,-0.0458,-0.0449,-0.0432,-0.0366,-0.034,-0.0305,-0.025,-0.0227,-0.0166,-0.0098,-0.0035,0.0004,0.0062,0.0112,0.0159,0.0133,0.0129,0.0125,0.0124,0.0198,0.02,0.0177,0.0177,0.0177,0,0,-0.0548,-0.0515,-0.0506,-0.0459,-0.0419,-0.0401,-0.035,-0.0319,-0.0298,-0.0215,-0.0176,-0.0113,-0.0027,0.0027,0.0057,0.0071,0.0154,0.0125,0.0121,0.0123,0.0198,0.02,0.0202,0.0177,0.0177,0.0177,0,0,-0.0582,-0.0553,-0.0555,-0.0522,-0.0468,-0.0427,-0.0423,-0.036,-0.0328,-0.0281,-0.0215,-0.0151,-0.0063,0.0006,0.0052,0.006,0.0125,0.0079,0.0052,0.0123,0.0125,0.0128,0.0177,0.0185,0.0082,0.0082,0.0082,0,-0.0604,-0.06,-0.0547,-0.0544,-0.0519,-0.0447,-0.0446,-0.0402,-0.0328,-0.0295,-0.0281,-0.0138,-0.0071,0.0016,0.0018,0.0052,0.0093,0.0062,0.0116,0.012,0.0124,0.0174,0.0184,0.0078,0.0078,0.0079,0.0079,0,-0.0642,-0.0633,-0.0634,-0.0602,-0.0572,-0.0559,-0.0494,-0.0462,-0.0416,-0.0361,-0.028,-0.0188,-0.01,-0.0068,-0.002,0.0049,0.0068,0.0096,0.0124,0.0122,0.0175,0.0186,0.0073,0.0074,0.0075,0.0076,0,0,-0.0703,-0.0668,-0.0666,-0.0659,-0.0603,-0.0582,-0.0549,-0.0488,-0.0457,-0.0383,-0.0332,-0.0223,-0.0167,-0.0112,-0.0037,0.0027,0.0086,0.0066,0.0071,0.0105,0.0227,0.0265,0.0282,0.0123,0.0125,0.0126,0.0247,0,-0.0745,-0.0759,-0.0722,-0.0721,-0.072,-0.0648,-0.0621,-0.0554,-0.0486,-0.042,-0.031,-0.0236,-0.0184,-0.0139,-0.0067,0.0055,0.0115,0.005,0.0234,0.0239,0.0266,0.0296,0.0251,0.0358,0.0259,0.0261,0.0262,0,-0.0795,-0.0792,-0.0812,-0.0774,-0.0767,-0.0756,-0.0689,-0.0653,-0.054,-0.0485,-0.039,-0.0298,-0.018,-0.0146,0.0048,0.0003,0.0103,0.0189,0.0197,0.0268,0.0299,0.035,0.0383,0.0281,0.028,0.0278,0.0277,0,-0.0868,-0.0851,-0.087,-0.0859,-0.0811,-0.0802,-0.0771,-0.0678,-0.064,-0.0524,-0.048,-0.0329,-0.0248,-0.0104,0.0074,0.0064,0.028,0.0294,0.042,0.0423,0.0442,0.0444,0.0422,0.0422,0.0421,0.0421,0.0421,0,-0.0932,-0.0943,-0.0908,-0.092,-0.0926,-0.0869,-0.0856,-0.0797,-0.071,-0.0659,-0.0524,-0.0447,-0.0233,-0.0079,0.0068,0.0283,0.028,0.0425,0.0467,0.0413,0.0411,0.039,0.0385,0.0426,0.0425,0.0424,0.0423,0,-0.101,-0.0994,-0.1006,-0.0972,-0.0966,-0.097,-0.0927,-0.0906,-0.0821,-0.075,-0.0716,-0.0522,-0.0314,-0.0102,0.0151,0.028,0.0476,0.0548,0.0461,0.0491,0.0568,0.0557,0.0703,0.0705,0.0707,0.0709,0.0711,0,-0.1053,-0.1071,-0.1054,-0.1065,-0.1057,-0.1054,-0.1049,-0.0974,-0.0941,-0.079,-0.0754,-0.0542,-0.0367,0.001,0.0272,0.0547,0.0542,0.0658,0.0642,0.0576,0.0602,0.0587,0.0574,0.0628,0.0629,0.063,0.063,0,-0.1117,-0.111,-0.1113,-0.1139,-0.1149,-0.1152,-0.1135,-0.1121,-0.1016,-0.0935,-0.0779,-0.0629,-0.0262,0.0056,0.0407,0.0551,0.0612,0.0681,0.066,0.0562,0.0516,0.0537,0.0525,0.0635,0.0635,0.0634,0.0634,0.0634,-0.1148,-0.1164,-0.1168,-0.119,-0.1211,-0.1225,-0.1216,-0.1167,-0.1101,-0.093,-0.0802,-0.0542,-0.025,0.0266,0.0504,0.0713,0.0705,0.0756,0.075,0.0744,0.0712,0.0672,0.0814,0.0814,0.0815,0.0815,0.0815,0,-0.1166,-0.1187,-0.1216,-0.1237,-0.1269,-0.1267,-0.1246,-0.1195,-0.1097,-0.0914,-0.0728,-0.0389,-0.0038,0.0256,0.0604,0.0812,0.0774,0.083,0.0743,0.0736,0.0731,0.0694,0.0794,0.0795,0.0796,0.0796,0,0,-0.1178,-0.1205,-0.1218,-0.1269,-0.1292,-0.1297,-0.1275,-0.1173,-0.1028,-0.0814,-0.0612,-0.0355,-0.0011,0.0238,0.0483,0.0659,0.0641,0.0661,0.0653,0.0514,0.0507,0.066,0.0594,0,0,0,0,0]}],[{"header":{"parameterUnit":"m.s-1","parameterCategory":2,"la1":30.2991,"la2":30.254,"lo1":-89.0895,"lo2":-89.0444,"dy":0.0017,"dx":0.0017,"nx":28,"ny":28,"refTime":"2023-11-03T03:00:00:Z","depth":"4","parameterNumber":2,"parameterNumberName":"U-component_of_CURRENTS"},"data":[0,0,0,0,0,0,0,0,0,0,0,0,0,0,0,0,0,0,0,0,0,0,0,0,0,0,0,0,0,0,0,0,0,0,0,0,0,0,0,0,0,0,0,0,0,0,0,0,0,0,0,0,0,0,0,0,0,0,-0.166,-0.1662,0,-0.1804,-0.1805,-0.1806,-0.1873,-0.1873,-0.1873,-0.1874,-0.1962,-0.1964,-0.1966,0,0,0,0,0,0,0,0,0,0,0,0,0,-0.1525,-0.1526,-0.166,-0.1662,-0.1665,-0.1803,-0.1805,-0.1806,-0.1873,-0.1873,-0.1873,-0.1874,-0.1961,-0.1964,-0.1966,0,0,0,0,0,0,0,0,0,0,0,0,0,-0.1612,-0.1526,-0.166,-0.1718,-0.1725,-0.1803,-0.1805,-0.1807,-0.1873,-0.1873,-0.1874,-0.1874,-0.196,-0.1963,-0.1966,-0.1975,0,0,-0.1976,-0.1977,0,0,0,0,0,0,0,0,-0.1607,-0.1617,-0.1707,-0.1714,-0.1722,-0.1825,-0.179,-0.1862,-0.1872,-0.1811,-0.1874,-0.1874,-0.1914,-0.1921,-0.194,-0.1979,-0.1983,-0.1976,-0.1978,-0.1979,-0.198,0,0,0,0,0,0,0,-0.1601,-0.1612,-0.1712,-0.171,-0.1719,-0.1765,-0.1777,-0.1804,-0.1853,-0.1817,-0.1823,-0.1847,-0.1917,-0.1937,-0.1943,-0.1984,-0.1976,-0.1978,-0.198,-0.1982,-0.211,-0.2111,0,0,0,0,0,0,-0.1589,-0.1605,-0.1708,-0.1717,-0.167,-0.1767,-0.178,-0.1788,-0.1854,-0.1867,-0.1846,-0.1849,-0.1932,-0.1939,-0.1946,-0.2036,-0.1979,-0.1982,-0.1984,-0.2108,-0.211,-0.2112,0,0,0,0,0,0,-0.1585,-0.1595,-0.1702,-0.1669,-0.1687,-0.1769,-0.1777,-0.179,-0.1848,-0.1878,-0.1889,-0.1895,-0.1933,-0.1942,-0.1993,-0.2037,-0.1983,-0.1986,-0.2106,-0.2109,-0.2111,-0.2167,0,0,0,0,0,0,-0.158,-0.1593,-0.1603,-0.1668,-0.1688,-0.1771,-0.1777,-0.1793,-0.1862,-0.1869,-0.1923,-0.193,-0.1934,-0.1988,-0.1996,-0.204,-0.1988,-0.2104,-0.2108,-0.211,-0.2163,-0.2171,-0.2178,0,0,0,0,0,-0.1574,-0.1602,-0.1602,-0.1616,-0.1696,-0.1774,-0.1789,-0.1845,-0.1864,-0.1897,-0.1927,-0.193,-0.2013,-0.1992,-0.2,-0.2047,-0.2103,-0.2107,-0.211,-0.216,-0.217,-0.2178,0,0,0,0,0,0,-0.1568,-0.1614,-0.1615,-0.1659,-0.1715,-0.1787,-0.1833,-0.1867,-0.1919,-0.1932,-0.1948,-0.1957,-0.2021,-0.2023,-0.2,-0.2092,-0.206,-0.2065,-0.2095,-0.2104,-0.2111,-0.2114,-0.1991,0,0,0,0,0,-0.1562,-0.1585,-0.1641,-0.1679,-0.1707,-0.177,-0.1814,-0.1855,-0.1908,-0.1935,-0.1971,-0.2005,-0.2037,-0.2062,-0.209,-0.2139,-0.2125,-0.2175,-0.2182,-0.2189,-0.2196,-0.2215,-0.2224,-0.2124,-0.2124,-0.2124,0,0,-0.1562,-0.1602,-0.1609,-0.1678,-0.1724,-0.1781,-0.1798,-0.188,-0.1928,-0.1933,-0.2011,-0.2037,-0.2056,-0.2111,-0.214,-0.2123,-0.2206,-0.2193,-0.2198,-0.2203,-0.222,-0.2229,-0.2238,-0.2126,-0.2126,-0.2125,0,0,-0.1591,-0.1616,-0.1642,-0.1696,-0.1779,-0.182,-0.1849,-0.1934,-0.1969,-0.2039,-0.2053,-0.2102,-0.216,-0.218,-0.2194,-0.2259,-0.2245,-0.2279,-0.232,-0.2339,-0.2347,-0.2354,-0.2326,-0.2331,-0.2282,-0.2282,-0.2282,0,-0.1585,-0.1637,-0.1668,-0.1726,-0.1781,-0.1839,-0.1898,-0.1942,-0.2034,-0.2069,-0.2072,-0.2176,-0.219,-0.2253,-0.2273,-0.2277,-0.2271,-0.2284,-0.2347,-0.2354,-0.2361,-0.2331,-0.2335,-0.2285,-0.2285,-0.2284,-0.2284,0,-0.1635,-0.1689,-0.1725,-0.1796,-0.1852,-0.1928,-0.1986,-0.2048,-0.2098,-0.2144,-0.2229,-0.2251,-0.2313,-0.2327,-0.2319,-0.2383,-0.2357,-0.2354,-0.2322,-0.2374,-0.2339,-0.2342,-0.2289,-0.2288,-0.2287,-0.2287,0,0,-0.1588,-0.1723,-0.1741,-0.1792,-0.1904,-0.1959,-0.2034,-0.2121,-0.2182,-0.2253,-0.2323,-0.2379,-0.2407,-0.2424,-0.2431,-0.2444,-0.2468,-0.2424,-0.2423,-0.239,-0.2483,-0.2315,-0.2301,-0.2483,-0.2485,-0.2486,-0.2432,0,-0.1619,-0.1734,-0.1795,-0.1908,-0.1969,-0.2047,-0.2111,-0.2195,-0.2259,-0.2337,-0.2374,-0.2441,-0.2437,-0.247,-0.2491,-0.2477,-0.2484,-0.2481,-0.2443,-0.2441,-0.2281,-0.2302,-0.2491,-0.2434,-0.2434,-0.2435,-0.2435,0,-0.1642,-0.1727,-0.1835,-0.1971,-0.2003,-0.2079,-0.2203,-0.2268,-0.2371,-0.2417,-0.2495,-0.2524,-0.2568,-0.2548,-0.2561,-0.2563,-0.2534,-0.2511,-0.2509,-0.2336,-0.2279,-0.2378,-0.244,-0.244,-0.2439,-0.2439,-0.2439,0,-0.1598,-0.1752,-0.1844,-0.1896,-0.2048,-0.2114,-0.2195,-0.2307,-0.2358,-0.2471,-0.2514,-0.2586,-0.2608,-0.261,-0.2569,-0.2574,-0.2552,-0.2548,-0.2368,-0.2354,-0.2498,-0.2491,-0.2557,-0.2557,-0.2557,-0.2557,-0.2557,0,-0.1595,-0.1678,-0.1844,-0.1898,-0.2009,-0.2115,-0.2223,-0.2308,-0.2413,-0.2458,-0.2554,-0.2569,-0.2628,-0.2619,-0.2586,-0.2468,-0.2566,-0.2368,-0.2334,-0.2519,-0.2515,-0.2498,-0.2492,-0.2555,-0.2555,-0.2556,-0.2556,0,-0.1525,-0.1636,-0.1757,-0.1936,-0.1992,-0.2071,-0.2225,-0.2283,-0.2399,-0.2453,-0.2483,-0.2562,-0.2533,-0.2555,-0.253,-0.2454,-0.238,-0.2318,-0.2487,-0.2465,-0.2164,-0.2162,-0.2103,-0.2097,-0.2091,-0.2087,-0.2083,0,-0.1498,-0.1553,-0.1759,-0.182,-0.191,-0.2039,-0.2105,-0.2254,-0.2296,-0.2406,-0.2398,-0.2432,-0.2455,-0.2277,-0.2328,-0.225,-0.223,-0.2183,-0.2198,-0.2147,-0.2121,-0.2127,-0.2132,-0.2075,-0.2073,-0.2072,-0.2071,0,-0.144,-0.1527,-0.1626,-0.1744,-0.1842,-0.1928,-0.2035,-0.2049,-0.2177,-0.2305,-0.2241,-0.2211,-0.2173,-0.214,-0.2101,-0.2051,-0.2212,-0.2127,-0.2138,-0.2152,-0.2112,-0.2093,-0.2104,-0.2052,-0.2055,-0.2057,-0.2058,0,-0.1394,-0.1441,-0.156,-0.1646,-0.1751,-0.1769,-0.1855,-0.1883,-0.1936,-0.2061,-0.2022,-0.2054,-0.213,-0.2033,-0.199,-0.1934,-0.1907,-0.1853,-0.1878,-0.19,-0.1861,-0.1782,-0.1582,0,0,0,0,0,-0.1334,-0.136,-0.1438,-0.1519,-0.1607,-0.165,-0.1772,-0.185,-0.1974,-0.1872,-0.1943,-0.1891,-0.182,-0.1842,-0.1739,-0.1902,-0.1924,-0.1776,-0.1878,-0.195,-0.1971,-0.1946,0,0,0,0,0,0,-0.1282,-0.1365,-0.1393,-0.1375,-0.1387,-0.1452,-0.1516,-0.1608,-0.1568,-0.1699,-0.1665,-0.1768,-0.1727,-0.1833,-0.1691,-0.17,-0.1725,-0.1815,-0.181,-0.1938,-0.1957,-0.1974,-0.1955,0,0,0,0,0]},{"header":{"parameterUnit":"m.s-1","parameterCategory":2,"la1":30.2991,"la2":30.254,"lo1":-89.0895,"lo2":-89.0444,"dy":0.0017,"dx":0.0017,"nx":28,"ny":28,"refTime":"2023-11-03T03:00:00:Z","depth":"4","parameterNumber":3,"parameterNumberName":"V-component_of_CURRENTS"},"data":[0,0,0,0,0,0,0,0,0,0,0,0,0,0,0,0,0,0,0,0,0,0,0,0,0,0,0,0,0,0,0,0,0,0,0,0,0,0,0,0,0,0,0,0,0,0,0,0,0,0,0,0,0,0,0,0,0,0,-0.0325,-0.0324,0,-0.0253,-0.0252,-0.0251,-0.0217,-0.0217,-0.0217,-0.0217,-0.0107,-0.0104,-0.0101,0,0,0,0,0,0,0,0,0,0,0,0,0,-0.0349,-0.035,-0.0325,-0.0324,-0.0323,-0.0253,-0.0252,-0.0251,-0.0217,-0.0217,-0.0217,-0.0217,-0.0107,-0.0104,-0.0101,0,0,0,0,0,0,0,0,0,0,0,0,0,-0.0316,-0.035,-0.0325,-0.0296,-0.0293,-0.0253,-0.0252,-0.0251,-0.0217,-0.0217,-0.0217,-0.0217,-0.0109,-0.0104,-0.01,-0.0078,0,0,-0.0087,-0.0086,0,0,0,0,0,0,0,0,-0.0318,-0.0315,-0.0302,-0.0298,-0.0294,-0.0242,-0.022,-0.019,-0.0217,-0.0248,-0.0217,-0.0217,-0.0147,-0.014,-0.013,-0.0073,-0.0068,-0.0087,-0.0084,-0.0083,-0.0081,0,0,0,0,0,0,0,-0.032,-0.0318,-0.0298,-0.03,-0.0296,-0.0258,-0.0254,-0.0214,-0.02,-0.0245,-0.0242,-0.0231,-0.0145,-0.0134,-0.0127,-0.0066,-0.0087,-0.0083,-0.0081,-0.0079,0.0008,0.0008,0,0,0,0,0,0,-0.0331,-0.0321,-0.03,-0.0296,-0.0304,-0.0258,-0.0253,-0.0261,-0.0201,-0.0192,-0.0231,-0.023,-0.0141,-0.0132,-0.0123,-0.0095,-0.0083,-0.0079,-0.0076,0.0009,0.0008,0.0008,0,0,0,0,0,0,-0.0332,-0.033,-0.0303,-0.0304,-0.0297,-0.0258,-0.0266,-0.0259,-0.0249,-0.0191,-0.0181,-0.0228,-0.0141,-0.0129,-0.0099,-0.0091,-0.0077,-0.0073,0.0009,0.0009,0.0008,-0.0038,0,0,0,0,0,0,-0.0333,-0.0332,-0.034,-0.0305,-0.0298,-0.0289,-0.0266,-0.0258,-0.0241,-0.0239,-0.0184,-0.0174,-0.014,-0.0105,-0.0094,-0.0084,-0.007,0.0009,0.0009,0.0008,-0.0036,-0.004,-0.0043,0,0,0,0,0,-0.0335,-0.035,-0.0342,-0.0339,-0.0312,-0.0289,-0.0283,-0.0253,-0.0242,-0.0243,-0.0209,-0.0176,-0.01,-0.0102,-0.0089,-0.0078,0.0009,0.0009,0.0008,-0.0035,-0.0039,-0.0043,0,0,0,0,0,0,-0.0366,-0.0346,-0.0337,-0.0346,-0.0323,-0.0283,-0.0279,-0.0258,-0.0232,-0.023,-0.0179,-0.0166,-0.0138,-0.0105,-0.0109,-0.0056,-0.0039,-0.0037,-0.0076,-0.008,-0.0083,-0.0082,-0.0066,0,0,0,0,0,-0.0377,-0.0381,-0.0355,-0.0359,-0.0354,-0.0318,-0.0304,-0.0285,-0.0256,-0.0245,-0.0208,-0.0168,-0.0129,-0.0104,-0.0072,-0.0039,0.0006,-0.0024,-0.0028,-0.0031,-0.0022,0.0057,0.0062,0.0007,0.0007,0.0007,0,0,-0.0389,-0.0376,-0.0379,-0.0365,-0.0347,-0.0343,-0.0311,-0.0297,-0.0288,-0.0235,-0.0219,-0.0181,-0.0127,-0.0096,-0.0079,-0.0066,0.0003,-0.0031,-0.0034,-0.0023,0.0057,0.0063,0.0068,0.0006,0.0006,0.0006,0,0,-0.0411,-0.0409,-0.042,-0.0407,-0.0382,-0.0361,-0.0361,-0.033,-0.0314,-0.0294,-0.0251,-0.0207,-0.0162,-0.011,-0.0079,-0.0079,-0.0023,-0.0075,-0.0079,-0.0004,0.0002,0.0008,0.0049,0.0058,-0.0069,-0.0069,-0.0069,0,-0.0424,-0.0438,-0.0418,-0.0422,-0.0413,-0.0375,-0.0382,-0.036,-0.0321,-0.0299,-0.03,-0.0205,-0.0164,-0.0094,-0.0099,-0.0083,-0.0046,-0.0068,-0.0007,-0.0,0.0007,0.0048,0.0059,-0.0071,-0.0071,-0.0071,-0.007,0,-0.0454,-0.0463,-0.0469,-0.0464,-0.0453,-0.0453,-0.0421,-0.0406,-0.0385,-0.035,-0.0295,-0.0235,-0.0172,-0.0154,-0.0127,-0.0055,-0.0049,-0.0026,0.0005,0.001,0.0052,0.0065,-0.0074,-0.0074,-0.0073,-0.0072,0,0,-0.0485,-0.0491,-0.0492,-0.0499,-0.0477,-0.0471,-0.0457,-0.0424,-0.0402,-0.036,-0.0317,-0.0247,-0.0203,-0.0164,-0.0112,-0.0045,0.0022,-0.0022,-0.0017,0.002,0.0165,0.0136,0.0147,0.0056,0.0059,0.0061,0.0167,0,-0.0513,-0.0542,-0.0529,-0.0545,-0.0558,-0.052,-0.0508,-0.0468,-0.0428,-0.038,-0.0294,-0.0242,-0.0209,-0.0176,-0.0102,-0.0008,0.0057,-0.0011,0.0155,0.0159,0.0135,0.0162,0.0068,0.0177,0.018,0.0182,0.0184,0,-0.0544,-0.0559,-0.0593,-0.0588,-0.059,-0.0593,-0.0557,-0.0539,-0.0455,-0.0419,-0.0337,-0.027,-0.0163,-0.0142,0.0034,-0.0013,0.0071,0.0142,0.0149,0.0152,0.0155,0.0179,0.0208,0.0206,0.0204,0.0203,0.0201,0,-0.0581,-0.0597,-0.063,-0.0631,-0.0623,-0.0626,-0.0617,-0.0555,-0.0532,-0.0438,-0.0403,-0.0268,-0.0201,-0.0069,0.0066,0.0057,0.0253,0.0263,0.0319,0.0316,0.0331,0.0324,0.0396,0.0396,0.0395,0.0395,0.0395,0,-0.0611,-0.0635,-0.0656,-0.0675,-0.0701,-0.0675,-0.0678,-0.0641,-0.0577,-0.0536,-0.0429,-0.0361,-0.0178,-0.0048,0.0072,0.0228,0.0263,0.0328,0.0354,0.0303,0.0292,0.0338,0.033,0.0399,0.0398,0.0397,0.0397,0,-0.0642,-0.0659,-0.0699,-0.0716,-0.0726,-0.0746,-0.0742,-0.0728,-0.0667,-0.0608,-0.0579,-0.0419,-0.0251,-0.0079,0.0143,0.0227,0.0382,0.0429,0.0343,0.036,0.0391,0.0379,0.0506,0.0507,0.0507,0.0507,0.0507,0,-0.0662,-0.069,-0.0743,-0.0773,-0.079,-0.0816,-0.0826,-0.0783,-0.0755,-0.0638,-0.0602,-0.0437,-0.0317,-0.0029,0.0142,0.0372,0.0401,0.047,0.0452,0.0396,0.0409,0.0396,0.0385,0.0507,0.0507,0.0507,0.0507,0,-0.0695,-0.0722,-0.0756,-0.0824,-0.0859,-0.0884,-0.0891,-0.0873,-0.0797,-0.0751,-0.0595,-0.0432,-0.0245,-0.0027,0.0148,0.0312,0.0421,0.0472,0.0473,0.0457,0.0398,0.0408,0.0396,0.0507,0.0507,0.0507,0.0507,0,-0.0717,-0.0753,-0.0806,-0.0853,-0.0906,-0.0922,-0.0925,-0.0869,-0.0829,-0.0687,-0.064,-0.0428,-0.0297,-0.0058,0.0105,0.026,0.0298,0.0341,0.035,0.0351,0.0268,0.0168,0.0242,0,0,0,0,0,-0.0731,-0.077,-0.0825,-0.0876,-0.0928,-0.0949,-0.0945,-0.0927,-0.0856,-0.075,-0.0686,-0.0507,-0.0235,-0.0113,0.0039,0.0087,0.0303,0.0266,0.0352,0.0509,0.0509,0.0435,0,0,0,0,0,0,-0.0736,-0.0802,-0.0824,-0.0879,-0.0913,-0.0955,-0.095,-0.0906,-0.083,-0.0742,-0.0595,-0.0493,-0.0233,-0.0327,0.0033,0.0081,0.0151,0.0399,0.0402,0.051,0.0509,0.0509,0.0433,0,0,0,0,0]}]]